Time,TemperatureF,DewpointF,PressureIn,WindDirection,WindDirectionDegrees,WindSpeedMPH,WindSpeedGustMPH,Humidity,HourlyPrecipIn,Conditions,Clouds,dailyrainin,SoftwareType,DateUTC
2013-06-27 00:00:00,76.2,64.4,29.79,NE,48,0.0,6.0,67,0.00,,---,0.00,VWS V14.01,2013-06-27 05:00:00,
2013-06-27 00:05:00,73.7,64.9,29.79,NE,48,0.0,0.0,74,0.00,,---,0.00,VWS V14.01,2013-06-27 05:05:00,
2013-06-27 00:30:00,74.9,64.5,29.79,NE,48,0.0,3.0,70,0.00,,---,0.00,VWS V14.01,2013-06-27 05:30:00,
2013-06-27 00:35:00,72.6,65.0,29.79,NE,48,0.0,0.0,77,0.00,,---,0.00,VWS V14.01,2013-06-27 05:35:00,
2013-06-27 01:00:00,73.7,64.9,29.79,NE,48,0.0,0.0,74,0.00,,---,0.00,VWS V14.01,2013-06-27 06:00:00,
2013-06-27 01:05:00,71.3,64.8,29.80,NE,48,0.0,0.0,80,0.00,,---,0.00,VWS V14.01,2013-06-27 06:05:00,
2013-06-27 01:30:00,72.6,65.0,29.79,NE,48,0.0,0.0,77,0.00,,---,0.00,VWS V14.01,2013-06-27 06:30:00,
2013-06-27 01:35:00,70.6,65.2,29.80,NE,48,0.0,0.0,83,0.00,,---,0.00,VWS V14.01,2013-06-27 06:35:00,
2013-06-27 02:00:00,71.3,64.8,29.80,NE,48,0.0,0.0,80,0.00,,---,0.00,VWS V14.01,2013-06-27 07:00:00,
2013-06-27 02:05:00,70.7,65.6,29.81,NE,48,0.0,3.0,84,0.00,,---,0.00,VWS V14.01,2013-06-27 07:05:00,
2013-06-27 02:30:00,70.6,65.2,29.80,NE,48,0.0,0.0,83,0.00,,---,0.00,VWS V14.01,2013-06-27 07:30:00,
2013-06-27 02:35:00,70.3,65.6,29.81,NE,48,0.0,0.0,85,0.00,,---,0.00,VWS V14.01,2013-06-27 07:35:00,
2013-06-27 03:00:00,70.7,65.6,29.81,NE,48,0.0,3.0,84,0.00,,---,0.00,VWS V14.01,2013-06-27 08:00:00,
2013-06-27 03:05:00,69.2,65.2,29.81,NE,48,0.0,0.0,87,0.00,,---,0.00,VWS V14.01,2013-06-27 08:05:00,
2013-06-27 03:35:00,68.7,64.7,29.81,NE,48,0.0,0.0,87,0.00,,---,0.00,VWS V14.01,2013-06-27 08:35:00,
2013-06-27 04:00:00,69.2,65.2,29.81,NE,48,0.0,0.0,87,0.00,,---,0.00,VWS V14.01,2013-06-27 09:00:00,
2013-06-27 04:05:00,67.3,64.6,29.81,NE,48,0.0,0.0,91,0.00,,---,0.00,VWS V14.01,2013-06-27 09:05:00,
2013-06-27 04:30:00,68.7,64.7,29.81,NE,48,0.0,0.0,87,0.00,,---,0.00,VWS V14.01,2013-06-27 09:30:00,
2013-06-27 04:35:00,66.8,64.4,29.81,NE,48,0.0,0.0,92,0.00,,---,0.00,VWS V14.01,2013-06-27 09:35:00,
2013-06-27 05:00:00,67.3,64.6,29.81,NE,48,0.0,0.0,91,0.00,,---,0.00,VWS V14.01,2013-06-27 10:00:00,
2013-06-27 05:05:00,66.6,64.5,29.82,NE,44,0.0,0.0,93,0.00,,---,0.00,VWS V14.01,2013-06-27 10:05:00,
2013-06-27 05:30:00,66.8,64.4,29.81,NE,48,0.0,0.0,92,0.00,,---,0.00,VWS V14.01,2013-06-27 10:30:00,
2013-06-27 05:35:00,66.6,64.5,29.83,NE,44,0.0,3.0,93,0.00,,---,0.00,VWS V14.01,2013-06-27 10:35:00,
2013-06-27 06:00:00,66.6,64.5,29.82,NE,44,0.0,0.0,93,0.00,,---,0.00,VWS V14.01,2013-06-27 11:00:00,
2013-06-27 06:05:00,67.0,64.3,29.84,NE,44,0.0,0.0,91,0.00,,---,0.00,VWS V14.01,2013-06-27 11:05:00,
2013-06-27 06:35:00,68.0,65.0,29.83,NE,44,0.0,0.0,90,0.00,,---,0.00,VWS V14.01,2013-06-27 11:35:00,
2013-06-27 07:00:00,67.0,64.3,29.84,NE,44,0.0,0.0,91,0.00,,---,0.00,VWS V14.01,2013-06-27 12:00:00,
2013-06-27 07:05:00,70.6,66.2,29.83,ESE,104,0.0,6.0,86,0.00,,---,0.00,VWS V14.01,2013-06-27 12:05:00,
2013-06-27 07:30:00,68.0,65.0,29.83,NE,44,0.0,0.0,90,0.00,,---,0.00,VWS V14.01,2013-06-27 12:30:00,
2013-06-27 07:35:00,72.3,66.8,29.84,ESE,104,0.0,0.0,83,0.00,,---,0.00,VWS V14.01,2013-06-27 12:35:00,
2013-06-27 08:00:00,70.6,66.2,29.83,ESE,104,0.0,6.0,86,0.00,,---,0.00,VWS V14.01,2013-06-27 13:00:00,
2013-06-27 08:05:00,74.1,67.5,29.85,WSW,257,0.0,6.0,80,0.00,,---,0.00,VWS V14.01,2013-06-27 13:05:00,
2013-06-27 08:30:00,72.3,66.8,29.84,ESE,104,0.0,0.0,83,0.00,,---,0.00,VWS V14.01,2013-06-27 13:30:00,
2013-06-27 08:35:00,75.5,68.9,29.84,WSW,257,0.0,0.0,80,0.00,,---,0.00,VWS V14.01,2013-06-27 13:35:00,
2013-06-27 09:00:00,74.1,67.5,29.85,WSW,257,0.0,6.0,80,0.00,,---,0.00,VWS V14.01,2013-06-27 14:00:00,
2013-06-27 09:05:00,77.9,69.7,29.84,SSW,195,0.0,6.0,76,0.00,,---,0.00,VWS V14.01,2013-06-27 14:05:00,
2013-06-27 09:30:00,75.5,68.9,29.84,WSW,257,0.0,0.0,80,0.00,,---,0.00,VWS V14.01,2013-06-27 14:30:00,
2013-06-27 09:35:00,80.0,70.6,29.83,SSE,158,6.0,9.0,73,0.00,,---,0.00,VWS V14.01,2013-06-27 14:35:00,
2013-06-27 10:00:00,77.9,69.7,29.84,SSW,195,0.0,6.0,76,0.00,,---,0.00,VWS V14.01,2013-06-27 15:00:00,
2013-06-27 10:05:00,80.3,70.5,29.84,SSW,207,0.0,9.0,72,0.00,,---,0.00,VWS V14.01,2013-06-27 15:05:00,
2013-06-27 10:30:00,80.0,70.6,29.83,SSE,158,6.0,9.0,73,0.00,,---,0.00,VWS V14.01,2013-06-27 15:30:00,
2013-06-27 10:35:00,78.7,68.5,29.85,South,191,6.0,9.0,71,0.00,,---,0.00,VWS V14.01,2013-06-27 15:35:00,
2013-06-27 11:05:00,78.8,69.0,29.85,WNW,292,0.0,15.0,72,0.00,,---,0.00,VWS V14.01,2013-06-27 16:05:00,
2013-06-27 11:30:00,78.7,68.5,29.85,South,191,6.0,9.0,71,0.00,,---,0.00,VWS V14.01,2013-06-27 16:30:00,
2013-06-27 11:35:00,79.3,68.7,29.88,WNW,296,0.0,9.0,70,0.00,,---,0.00,VWS V14.01,2013-06-27 16:35:00,
2013-06-27 12:00:00,78.8,69.0,29.85,WNW,292,0.0,15.0,72,0.00,,---,0.00,VWS V14.01,2013-06-27 17:00:00,
2013-06-27 12:05:00,78.5,67.5,29.89,SSW,193,9.0,24.0,69,0.00,,---,0.00,VWS V14.01,2013-06-27 17:05:00,
2013-06-27 12:30:00,79.3,68.7,29.88,WNW,296,0.0,9.0,70,0.00,,---,0.00,VWS V14.01,2013-06-27 17:30:00,
2013-06-27 12:35:00,77.3,67.6,29.89,WSW,237,21.0,24.0,72,0.00,,---,0.00,VWS V14.01,2013-06-27 17:35:00,
2013-06-27 13:00:00,78.5,67.5,29.89,SSW,193,9.0,24.0,69,0.00,,---,0.00,VWS V14.01,2013-06-27 18:00:00,
2013-06-27 13:05:00,76.8,66.3,29.89,West,269,15.0,21.0,70,0.00,,---,0.00,VWS V14.01,2013-06-27 18:05:00,
2013-06-27 13:30:00,77.3,67.6,29.89,WSW,237,21.0,24.0,72,0.00,,---,0.00,VWS V14.01,2013-06-27 18:30:00,
2013-06-27 13:35:00,74.6,68.4,29.88,WNW,292,0.0,24.0,81,0.02,,---,0.02,VWS V14.01,2013-06-27 18:35:00,
2013-06-27 14:00:00,76.8,66.3,29.89,West,269,15.0,21.0,70,0.00,,---,0.00,VWS V14.01,2013-06-27 19:00:00,
2013-06-27 14:05:00,75.5,68.5,29.87,SSW,196,0.0,15.0,79,0.02,,---,0.02,VWS V14.01,2013-06-27 19:05:00,
2013-06-27 14:30:00,74.6,68.4,29.88,WNW,292,0.0,24.0,81,0.02,,---,0.02,VWS V14.01,2013-06-27 19:30:00,
2013-06-27 14:35:00,78.4,67.4,29.86,SW,227,3.0,18.0,69,0.02,,---,0.02,VWS V14.01,2013-06-27 19:35:00,
2013-06-27 15:00:00,75.5,68.5,29.87,SSW,196,0.0,15.0,79,0.02,,---,0.02,VWS V14.01,2013-06-27 20:00:00,
2013-06-27 15:05:00,81.8,70.2,29.85,North,350,6.0,18.0,68,0.00,,---,0.02,VWS V14.01,2013-06-27 20:05:00,
2013-06-27 15:30:00,78.4,67.4,29.86,SW,227,3.0,18.0,69,0.02,,---,0.02,VWS V14.01,2013-06-27 20:30:00,
2013-06-27 15:35:00,83.9,69.5,29.85,South,174,3.0,24.0,62,0.00,,---,0.02,VWS V14.01,2013-06-27 20:35:00,
2013-06-27 16:00:00,81.8,70.2,29.85,North,350,6.0,18.0,68,0.00,,---,0.02,VWS V14.01,2013-06-27 21:00:00,
2013-06-27 16:05:00,84.0,67.7,29.85,NNW,338,6.0,21.0,58,0.00,,---,0.02,VWS V14.01,2013-06-27 21:05:00,
2013-06-27 16:30:00,83.9,69.5,29.85,South,174,3.0,24.0,62,0.00,,---,0.02,VWS V14.01,2013-06-27 21:30:00,
2013-06-27 16:35:00,84.6,71.1,29.85,West,272,6.0,24.0,64,0.00,,---,0.02,VWS V14.01,2013-06-27 21:35:00,
2013-06-27 17:00:00,84.0,67.7,29.85,NNW,338,6.0,21.0,58,0.00,,---,0.02,VWS V14.01,2013-06-27 22:00:00,
2013-06-27 17:30:00,84.6,71.1,29.85,West,272,6.0,24.0,64,0.00,,---,0.02,VWS V14.01,2013-06-27 22:30:00,
2013-06-27 17:35:00,86.7,70.2,29.82,WSW,254,12.0,24.0,58,0.00,,---,0.02,VWS V14.01,2013-06-27 22:35:00,
2013-06-27 18:00:00,86.2,71.2,29.83,NNE,17,9.0,18.0,61,0.00,,---,0.02,VWS V14.01,2013-06-27 23:00:00,
2013-06-27 18:30:00,86.7,70.2,29.82,WSW,254,12.0,24.0,58,0.00,,---,0.02,VWS V14.01,2013-06-27 23:30:00,
2013-06-27 18:35:00,87.1,66.8,29.81,WNW,296,3.0,27.0,51,0.00,,---,0.02,VWS V14.01,2013-06-27 23:35:00,
2013-06-27 19:00:00,87.2,68.5,29.81,West,263,6.0,21.0,54,0.00,,---,0.02,VWS V14.01,2013-06-28 00:00:00,
2013-06-27 19:05:00,86.8,67.1,29.81,NNW,346,6.0,18.0,52,0.00,,---,0.02,VWS V14.01,2013-06-28 00:05:00,
2013-06-27 19:30:00,87.1,66.8,29.81,WNW,296,3.0,27.0,51,0.00,,---,0.02,VWS V14.01,2013-06-28 00:30:00,
2013-06-27 19:35:00,84.4,66.5,29.80,WNW,286,3.0,18.0,55,0.00,,---,0.02,VWS V14.01,2013-06-28 00:35:00,
2013-06-27 20:00:00,86.8,67.1,29.81,NNW,346,6.0,18.0,52,0.00,,---,0.02,VWS V14.01,2013-06-28 01:00:00,
2013-06-27 20:05:00,82.4,67.6,29.80,WSW,250,3.0,15.0,61,0.00,,---,0.02,VWS V14.01,2013-06-28 01:05:00,
2013-06-27 20:30:00,84.4,66.5,29.80,WNW,286,3.0,18.0,55,0.00,,---,0.02,VWS V14.01,2013-06-28 01:30:00,
2013-06-27 20:35:00,80.8,67.0,29.81,NW,313,0.0,6.0,63,0.00,,---,0.02,VWS V14.01,2013-06-28 01:35:00,
2013-06-27 21:00:00,82.4,67.6,29.80,WSW,250,3.0,15.0,61,0.00,,---,0.02,VWS V14.01,2013-06-28 02:00:00,
2013-06-27 21:05:00,79.1,66.3,29.80,NNW,327,0.0,6.0,65,0.00,,---,0.02,VWS V14.01,2013-06-28 02:05:00,
2013-06-27 21:30:00,80.8,67.0,29.81,NW,313,0.0,6.0,63,0.00,,---,0.02,VWS V14.01,2013-06-28 02:30:00,
2013-06-27 21:35:00,78.1,65.8,29.81,NNE,29,3.0,9.0,66,0.00,,---,0.02,VWS V14.01,2013-06-28 02:35:00,
2013-06-27 22:00:00,79.1,66.3,29.80,NNW,327,0.0,6.0,65,0.00,,---,0.02,VWS V14.01,2013-06-28 03:00:00,
2013-06-27 22:05:00,77.9,63.4,29.82,NE,44,3.0,15.0,61,0.00,,---,0.02,VWS V14.01,2013-06-28 03:05:00,
2013-06-27 22:30:00,78.1,65.8,29.81,NNE,29,3.0,9.0,66,0.00,,---,0.02,VWS V14.01,2013-06-28 03:30:00,
2013-06-27 22:35:00,77.3,63.3,29.84,NNE,17,3.0,15.0,62,0.00,,---,0.02,VWS V14.01,2013-06-28 03:35:00,
2013-06-27 23:00:00,77.9,63.4,29.82,NE,44,3.0,15.0,61,0.00,,---,0.02,VWS V14.01,2013-06-28 04:00:00,
2013-06-27 23:05:00,76.2,63.1,29.84,West,268,0.0,9.0,64,0.00,,---,0.02,VWS V14.01,2013-06-28 04:05:00,
2013-06-27 23:30:00,77.3,63.3,29.84,NNE,17,3.0,15.0,62,0.00,,---,0.02,VWS V14.01,2013-06-28 04:30:00,
2013-06-27 23:35:00,75.3,62.7,29.84,WSW,241,0.0,12.0,65,0.00,,---,0.02,VWS V14.01,2013-06-28 04:35:00,